This demonstration page uses our WeatherBlox Daily Observations layout. Learn more.

Left ArrowRight Arrow

Hourly Observations for May 22, 2018

Temp ( °F °C ) Dew Point ( °F °C ) Humidity (%) Winds ( mph kmh ) Pressure ( in mb ) Visibility ( mi km ) Precip ( " mm )
12:53 am 00:53 Clear 72 22.2 55 12.8 55 55 WSW 3 6 29.77 1008 10 16 0.00 0.00
1:53 am 01:53 Clear 67 19.4 56 13.3 68 68 E 3 6 29.77 1008 10 16 0.00 0.00
2:53 am 02:53 Clear 66 18.9 56 13.3 70 70 N 3 6 29.77 1008 10 16 0.00 0.00
3:53 am 03:53 Clear 64 17.8 56 13.3 75 75 Calm 29.78 1009 10 16 0.00 0.00
4:53 am 04:53 Clear 62 16.7 55 12.8 78 78 Calm 29.78 1008 10 16 0.00 0.00
5:53 am 05:53 Sunny 61 16.1 55 12.8 81 81 Calm 29.78 1009 10 16 0.00 0.00
6:53 am 06:53 Sunny 63 17.2 57 13.9 81 81 Calm 29.80 1009 10 16 0.00 0.00
7:53 am 07:53 Sunny 67 19.4 57 13.9 71 71 SSE 5 7 29.81 1009 10 16 0.00 0.00
8:53 am 08:53 Sunny 70 21.1 56 13.3 61 61 SSE 7 11 29.82 1010 10 16 0.00 0.00
9:53 am 09:53 Sunny 74 23.3 55 12.8 52 52 S 6 9 29.80 1009 10 16 0.00 0.00
10:53 am 10:53 Sunny 77 25 56 13.3 48 48 SSE 7 11 29.79 1009 10 16 0.00 0.00
11:53 am 11:53 Sunny 80 26.7 55 12.8 42 42 VRB 6 9 29.77 1008 10 16 0.00 0.00
12:53 pm 12:53 Sunny 83 28.3 54 12.2 37 37 NW 5 7 29.74 1007 10 16 0.00 0.00
1:53 pm 13:53 Sunny 85 29.4 55 12.8 36 36 SSE 8 13 29.72 1006 10 16 0.00 0.00
2:53 pm 14:53 Sunny 87 30.6 56 13.3 35 35 SSE 13 20 29.70 1006 10 16 0.00 0.00
3:53 pm 15:53 Sunny 87 30.6 56 13.3 35 35 SSE 17 28 29.69 1006 10 16 0.00 0.03
4:53 pm 16:53 Sunny 86 30 55 12.8 35 35 S 15 24 29.68 1005 10 16 0.00 0.00
5:53 pm 17:53 Sunny 85 29.4 56 13.3 37 37 S 16 26 29.68 1005 10 16 0.00 0.00
6:53 pm 18:53 Sunny 83 28.3 57 13.9 41 41 SSE 14 22 29.69 1005 10 16 0.00 0.00
7:53 pm 19:53 Partly Cloudy 79 26.1 58 14.4 49 49 SSE 9 15 29.71 1006 10 16 0.00 0.00
8:53 pm 20:53 Cloudy 77 25 57 13.9 50 50 SSE 6 9 29.74 1007 10 16 0.00 0.00
9:53 pm 21:53 Cloudy 78 25.6 57 13.9 48 48 SSW 8 13 29.76 1008 10 16 0.00 0.00
10:53 pm 22:53 Mostly Clear 76 24.4 57 13.9 52 52 SSW 7 11 29.78 1008 10 16 0.00 0.00
11:53 pm 23:53 Clear 74 23.3 56 13.3 54 54 SSE 8 13 29.78 1009 10 16 0.00 0.00

Powered by AerisWeather